Date,TemperatureHighF,TemperatureAvgF,TemperatureLowF,DewpointHighF,DewpointAvgF,DewpointLowF,HumidityHigh,HumidityAvg,HumidityLow,PressureMaxIn,PressureMinIn,WindSpeedMaxMPH,WindSpeedAvgMPH,GustSpeedMaxMPH,PrecipitationSumIn
2013-3-1,26.0,21.2,7.2,20.2,16.0,3.8,89,80,69,30.30,30.16,19,4,19,0.00
2013-3-2,27.2,15.4,5.9,14.9,8.3,1.8,90,74,54,30.32,30.22,12,2,12,0.00
2013-3-3,26.3,13.4,-1.0,12.1,5.4,-4.7,87,72,49,30.23,30.15,7,1,7,0.01
2013-3-4,30.6,21.7,7.3,25.3,16.3,2.6,92,80,66,30.18,30.06,22,6,22,0.00
2013-3-5,28.8,27.3,25.1,26.7,24.8,22.5,93,90,84,30.15,29.92,22,6,22,0.03
2013-3-6,32.5,27.9,23.5,27.4,23.4,19.4,90,83,76,30.36,30.15,15,4,15,0.12
2013-3-7,35.8,21.1,5.7,23.0,14.4,2.3,90,76,55,30.47,30.35,8,1,8,0.07
2013-3-8,36.2,24.1,7.8,27.5,19.0,4.7,92,81,70,30.51,30.31,16,2,16,0.00
2013-3-9,38.6,34.7,28.8,35.7,30.6,23.7,95,85,77,30.31,29.80,20,7,20,0.36
2013-3-10,39.5,36.8,34.0,38.7,35.6,32.6,97,95,93,29.82,29.64,23,4,23,0.80
2013-3-11,33.9,32.2,29.5,32.6,30.3,24.7,96,92,83,29.79,29.58,19,4,19,0.02
2013-3-12,32.6,28.0,24.9,26.3,22.9,17.9,90,81,70,30.06,29.80,18,5,18,0.01
2013-3-13,32.4,24.6,17.8,19.7,12.8,8.7,81,62,39,30.35,30.06,21,5,21,0.00
2013-3-14,33.4,23.8,11.7,27.6,19.4,8.4,90,83,71,30.36,30.09,11,1,11,0.02
2013-3-15,34.7,30.0,24.4,31.7,27.8,22.4,100,91,85,30.10,29.85,18,2,18,0.12
2013-3-21,14.2,13.6,12.6,9.2,8.7,7.8,82,80,80,30.09,30.09,0,0,0,0.01
2013-3-22,12.5,9.0,6.8,8.2,5.4,3.3,87,85,82,30.11,30.09,0,0,0,0.00
2013-3-23,28.2,28.0,27.9,21.4,21.2,21.0,76,75,74,30.12,30.10,6,1,6,0.00
2013-3-24,31.0,29.3,27.7,27.3,24.6,21.3,91,83,74,30.11,29.83,22,7,22,0.02
2013-3-25,34.4,30.5,24.5,27.4,23.0,18.9,81,73,67,30.13,29.87,17,6,17,0.00
2013-3-26,41.1,34.7,29.9,28.9,24.9,22.3,76,67,56,30.28,30.13,15,3,15,0.00
2013-3-27,42.1,33.6,24.9,27.2,23.8,20.0,82,68,44,30.35,30.28,10,2,10,0.00
2013-3-28,46.4,33.8,20.7,25.8,21.8,17.7,91,64,39,30.39,30.31,8,1,8,0.00
2013-3-29,47.0,35.4,22.5,29.2,23.6,19.7,92,65,39,30.36,30.24,9,1,9,0.00
2013-3-30,51.4,41.8,30.7,41.2,33.6,24.2,91,73,63,30.25,29.83,16,2,16,0.00
2013-3-31,45.4,39.1,32.1,40.4,32.8,20.2,93,79,59,29.94,29.74,24,6,24,0.00